Theta_e
329 327 331 336 338 339 342 343 343 343 343 340 337 333 331 332 332 335 335 333 330 327 327 327 327 325 328 332 331 328 325 325 328 330 328 327 327 330 332 333 335 337 336
327 324 325 330 335 337 340 342 342 342 342 341 338 334 332 329 329 326 325 324 325 325 326 324 324 326 326 331 331 331 329 328 326 326 328 329 328 330 331 338 338 333 332
334 323 321 324 331 335 337 340 338 340 340 339 339 338 336 333 331 330 328 330 328 323 324 323 326 331 331 332 331 330 329 329 327 326 327 329 331 330 328 335 338 335 333
335 325 320 320 323 328 332 334 336 336 334 333 336 336 336 336 336 334 334 332 328 323 323 325 325 329 324 324 327 330 330 330 328 327 327 328 335 333 330 326 332 334 333
333 327 324 321 319 319 320 323 325 328 331 332 332 333 335 335 333 333 331 329 322 325 327 328 327 329 325 325 324 322 330 329 329 329 328 331 334 335 334 326 331 334 332
332 328 326 323 321 319 319 319 319 320 321 323 326 330 332 333 333 332 330 327 326 326 327 331 329 329 325 324 324 326 331 331 331 331 329 332 335 333 333 329 325 333 331
332 329 328 326 325 323 322 321 321 322 323 325 326 326 330 330 331 330 325 328 327 327 329 330 330 330 328 325 325 324 326 324 330 332 331 333 335 334 332 330 323 331 332
332 332 332 330 328 325 324 325 324 324 324 324 325 325 323 326 328 330 330 330 331 329 326 323 323 326 326 323 323 325 325 325 328 333 333 334 334 332 332 331 327 324 330
337 336 334 334 332 330 324 322 323 324 325 325 326 326 326 324 324 325 327 328 328 327 326 326 326 325 327 327 327 327 328 327 328 331 331 332 333 332 332 331 330 325 328
339 338 336 335 334 331 327 327 324 324 325 325 325 325 326 326 325 324 323 323 323 325 326 327 329 330 329 328 328 326 324 326 328 329 331 331 332 330 331 330 330 327 330
338 339 338 337 335 333 330 330 330 329 328 328 325 325 327 327 324 324 323 323 322 321 322 323 325 325 325 325 325 325 325 324 325 324 326 327 328 330 332 330 330 329 327
335 333 330 333 335 333 333 330 331 330 329 329 328 328 328 327 324 324 321 320 318 317 317 319 318 319 322 322 321 321 323 325 325 323 323 326 328 328 330 331 330 329 328
326 324 322 320 320 330 329 329 332 329 329 329 329 327 327 326 323 322 322 321 319 316 316 316 315 316 317 317 317 318 318 319 324 323 320 323 326 327 329 328 327 327 327
322 321 320 319 324 329 329 331 331 329 330 328 327 326 323 321 318 318 320 319 320 317 317 317 319 319 318 317 318 317 315 316 317 318 319 320 322 324 326 329 328 327 326
320 319 319 318 318 327 327 330 329 329 328 326 323 321 321 321 321 319 319 319 319 318 317 317 318 319 320 320 321 320 320 320 320 318 317 317 317 319 323 327 329 329 329
319 318 318 317 316 319 324 324 323 321 319 317 317 316 317 320 320 320 321 320 317 315 313 309 307 307 307 309 311 313 315 317 317 319 321 319 320 319 318 319 322 326 327
317 317 317 316 317 318 320 323 322 320 317 314 314 313 314 317 317 317 316 316 316 312 310 309 305 304 304 304 304 303 304 308 307 305 306 309 316 321 322 321 318 321 321
316 316 316 314 316 317 316 320 319 316 314 312 311 311 312 312 312 311 311 311 311 308 307 305 304 304 304 304 304 303 304 304 303 303 302 303 305 309 320 323 321 319 321
315 315 313 313 313 312 312 314 315 313 313 310 310 311 312 312 309 310 311 311 309 305 305 305 305 304 304 304 304 303 303 303 303 302 303 305 305 305 314 317 316 321 321
313 313 312 311 311 310 309 311 311 310 310 310 309 311 312 312 309 307 308 308 307 306 305 305 305 304 304 304 304 303 303 303 303 303 303 304 303 309 309 311 315 317 317
312 312 312 311 311 310 309 309 309 309 308 308 308 309 313 310 310 307 306 306 307 306 305 305 305 304 304 304 304 304 304 303 303 303 304 303 304 304 304 309 305 307 315
312 312 312 311 311 310 309 309 309 309 308 308 307 307 308 310 310 308 307 305 306 306 305 304 304 305 304 303 304 302 301 302 302 304 303 304 304 304 304 304 305 305 306
313 313 313 313 312 312 311 310 309 308 307 307 307 307 306 307 309 308 307 306 305 304 304 304 303 303 303 302 302 303 301 301 302 303 303 304 304 304 305 305 305 305 307
313 313 313 313 313 312 311 310 309 309 307 308 308 307 307 307 308 307 306 305 305 304 303 303 301 301 300 299 298 300 299 300 300 301 301 302 301 302 303 304 304 303 305
313 313 313 313 313 312 312 311 311 310 309 309 308 307 307 306 306 306 306 305 305 303 302 301 300 297 295 295 295 294 294 295 298 299 298 298 298 300 301 301 301 302 302
314 314 314 313 313 312 312 312 312 311 311 309 309 307 306 305 305 306 305 305 302 300 300 300 298 296 296 296 297 297 294 296 296 297 296 296 296 297 297 298 299 300 300
Wind_Speed
9 10 10 12 15 14 16 13 11 10 12 13 14 13 12 13 16 17 18 17 15 11 9 10 7 9 6 4 6 7 2 3 3 4 3 4 6 8 9 11 8 13 14
11 9 10 12 14 14 16 15 14 12 12 12 12 11 12 11 12 12 12 12 12 2 6 7 8 17 14 6 3 4 3 3 1 2 5 8 10 11 10 14 10 10 12
8 8 10 12 14 14 17 16 16 14 13 9 8 9 9 8 9 8 8 8 6 13 14 6 6 11 7 14 11 3 4 7 5 4 5 5 9 12 12 15 13 11 12
9 7 10 10 13 13 14 14 14 13 11 9 8 8 8 9 8 8 11 14 14 8 5 2 3 13 8 5 7 10 11 9 9 8 8 6 7 8 10 12 14 12 14
8 9 10 10 12 12 12 11 11 10 9 7 8 8 7 8 7 8 11 10 4 3 2 1 1 7 12 16 16 19 20 17 12 12 12 10 9 10 13 11 15 15 15
8 9 9 10 11 12 11 10 10 10 9 8 7 7 7 6 5 4 5 4 6 3 2 4 2 4 10 8 11 17 18 20 16 15 16 13 13 14 16 13 17 18 16
12 10 11 10 11 10 9 9 8 8 8 8 8 7 6 5 3 2 2 3 5 5 6 7 9 13 14 15 21 16 17 15 17 16 17 16 11 14 17 14 18 21 19
14 12 10 9 10 10 8 8 7 6 6 6 5 5 6 5 5 4 3 3 4 3 4 5 8 15 16 14 21 22 16 13 12 15 18 17 12 14 19 17 19 21 21
13 12 13 12 11 9 9 6 5 5 5 5 5 5 5 5 5 4 3 3 3 2 2 3 3 4 6 6 7 11 14 14 13 13 18 17 16 16 23 19 19 21 22
15 13 12 11 9 8 8 7 5 5 4 3 4 5 4 5 6 5 5 4 4 3 4 4 3 2 4 4 4 7 8 10 11 11 14 17 17 17 23 20 20 21 22
15 14 13 10 7 7 6 7 6 7 7 5 5 7 6 5 3 4 4 6 6 6 6 5 6 6 6 4 5 7 9 10 11 11 13 13 15 13 17 20 20 20 23
21 17 11 8 7 7 7 7 7 6 5 6 6 7 7 5 2 4 3 3 5 5 5 6 6 6 9 8 9 9 11 13 14 15 15 17 15 14 16 18 19 19 22
17 14 10 5 5 9 6 11 10 7 8 8 7 8 7 6 5 7 6 4 4 2 3 2 4 7 9 12 14 13 12 11 14 14 16 13 14 18 18 20 21 22 22
18 13 10 5 6 6 6 7 8 10 11 10 7 7 6 6 5 6 6 5 5 4 4 5 5 6 8 10 11 12 12 16 20 18 16 17 17 15 17 19 21 23 24
17 15 10 3 5 8 6 9 10 12 14 14 11 10 8 9 7 7 7 5 4 4 5 7 9 8 9 12 13 14 16 17 17 15 17 19 20 22 18 17 20 21 23
21 18 12 7 4 7 7 6 7 9 10 9 10 9 8 9 8 9 9 8 6 5 6 6 7 8 9 11 12 13 14 17 19 20 20 22 23 23 23 22 22 23 23
17 16 13 9 6 6 6 8 8 9 11 11 11 9 8 10 10 9 9 10 9 6 6 5 7 6 9 10 12 12 14 13 15 19 21 22 25 24 25 27 26 25 24
15 17 13 8 7 6 5 7 8 10 11 11 13 13 11 11 10 12 11 11 8 7 6 5 4 7 9 10 12 14 15 17 19 19 21 23 25 26 27 26 28 31 30
15 17 12 8 6 4 5 7 9 10 14 14 15 16 15 13 13 12 12 11 8 8 8 7 5 7 9 11 13 15 16 16 18 21 20 20 22 24 25 26 29 31 31
17 12 9 6 4 8 9 9 12 16 14 16 16 20 20 17 14 14 13 14 11 11 11 11 8 7 8 11 12 16 14 16 18 14 21 19 22 14 19 23 27 30 33
16 10 5 5 7 10 11 14 15 18 20 20 20 18 23 21 20 17 17 14 16 14 14 12 8 8 9 9 13 16 17 18 12 24 13 24 20 21 21 14 22 20 26
11 8 7 6 8 12 15 19 20 23 25 24 24 24 26 27 27 25 22 20 18 17 16 12 8 5 5 7 6 7 4 16 17 16 25 19 23 21 23 24 26 26 22
10 8 8 9 12 14 18 21 24 25 25 28 29 27 29 30 31 30 29 24 22 20 19 14 9 6 2 2 7 3 3 3 15 17 22 21 17 22 21 22 25 29 21
12 12 13 13 15 18 20 24 28 32 28 36 38 36 32 26 34 33 31 27 22 20 15 11 8 4 2 4 11 9 16 16 4 10 14 21 24 24 25 23 21 22 21
10 11 15 15 19 18 21 24 26 30 37 41 40 36 35 31 32 34 31 28 21 20 15 8 1 3 7 10 15 19 24 24 21 7 12 16 25 21 22 28 31 34 31
8 5 7 10 13 16 20 23 28 32 38 37 39 40 35 28 24 27 28 22 18 14 13 7 4 6 12 16 21 25 25 13 14 11 8 13 15 23 24 26 27 24 26
Wind_Direction
105 107 111 110 99 94 86 86 105 115 115 116 123 129 130 131 134 141 143 142 127 112 141 137 164 197 216 320 335 328 289 214 190 208 176 183 181 182 181 159 168 150 141
100 98 109 102 103 99 93 92 92 114 114 121 134 141 147 150 148 148 154 150 145 67 194 192 175 191 194 207 197 326 325 297 164 202 214 201 198 197 187 175 174 165 158
101 105 102 111 106 106 103 98 94 101 111 120 131 154 157 169 179 193 198 196 234 293 273 245 177 162 191 189 178 222 275 277 271 238 244 231 220 202 200 197 190 177 175
116 113 104 106 106 103 99 98 101 100 104 117 140 147 156 173 195 219 236 230 283 283 263 254 152 182 176 238 199 260 271 246 248 258 256 237 218 222 217 209 210 214 194
124 113 110 110 104 97 96 100 98 106 114 117 119 122 140 174 199 222 238 261 240 248 225 235 80 219 237 236 201 250 233 231 227 246 245 245 235 249 230 213 199 191 193
114 119 112 107 98 96 98 98 104 115 119 120 107 111 133 154 178 225 269 239 249 247 258 252 252 212 230 209 208 216 220 233 218 227 245 245 244 240 216 214 204 199 197
128 120 102 97 99 99 109 113 114 112 105 106 107 114 131 131 159 190 232 200 251 280 271 232 226 238 237 234 236 229 227 233 233 231 240 243 251 220 220 208 206 203 204
133 120 117 116 108 111 116 124 132 134 125 118 117 119 121 138 147 183 203 217 257 282 272 262 254 227 224 248 241 237 257 267 258 260 249 245 235 238 228 222 209 207 209
141 142 145 134 122 107 101 105 129 141 142 145 141 131 123 130 144 156 185 191 188 236 272 279 283 194 199 227 243 244 260 268 277 269 262 253 251 254 226 224 215 210 210
159 160 155 140 134 107 110 101 117 131 140 158 173 163 162 167 171 184 201 229 243 230 215 228 224 216 208 210 215 238 251 248 252 254 257 260 256 253 226 222 218 216 213
159 164 153 159 160 149 149 134 146 151 145 146 173 171 165 165 164 183 186 213 226 230 232 222 215 214 229 226 235 248 263 263 260 262 258 248 257 247 230 230 224 223 219
151 156 160 161 178 178 178 194 172 172 181 167 173 181 191 195 210 208 215 221 218 217 218 245 255 243 249 247 253 263 265 264 268 267 258 258 257 251 243 239 236 234 228
168 168 172 148 161 177 179 195 189 205 194 185 200 204 201 210 248 217 210 222 209 266 251 320 327 287 280 281 278 276 272 281 274 275 257 261 256 258 256 249 245 241 238
175 175 172 126 150 174 178 184 193 191 194 187 190 188 207 208 227 230 236 254 256 278 314 309 307 301 311 311 310 312 304 275 271 276 280 274 269 267 253 249 254 251 247
178 179 171 157 163 186 178 182 192 191 184 186 190 199 216 211 212 224 226 239 236 251 267 292 300 306 303 302 301 300 305 307 302 288 273 283 277 271 261 261 258 256 252
182 180 179 185 184 186 208 215 215 207 203 204 204 215 219 214 219 224 223 226 240 255 281 293 306 311 314 317 324 323 310 307 308 304 292 280 281 277 267 262 265 263 258
181 181 185 189 190 199 221 234 256 258 243 240 242 245 241 225 235 221 218 218 213 238 267 309 327 324 331 328 331 330 323 317 315 313 308 301 287 278 275 268 258 259 262
182 182 177 184 187 208 235 242 258 259 243 249 254 254 250 245 229 219 215 219 226 249 256 282 307 323 325 330 330 330 324 322 324 324 323 317 302 291 279 278 267 259 264
176 165 162 169 182 228 249 257 252 260 248 244 248 256 250 244 242 225 232 234 241 229 234 247 276 311 320 326 324 322 322 322 324 323 327 331 321 295 291 289 284 277 265
147 146 153 172 251 278 272 256 259 269 257 243 244 246 253 248 236 229 227 230 230 228 227 233 256 278 291 315 317 320 312 314 310 319 322 330 342 333 317 304 296 286 281
141 153 185 257 269 267 263 264 262 258 260 255 259 252 231 246 245 238 227 230 226 223 231 221 239 268 280 303 313 322 316 313 306 314 314 323 329 329 326 302 321 314 290
165 183 204 249 270 276 268 270 269 273 275 272 271 258 245 237 236 237 235 228 216 220 209 210 220 229 253 319 332 333 328 313 311 313 309 305 312 313 315 318 315 309 299
195 225 246 257 265 267 266 265 265 262 259 262 261 256 252 247 233 230 228 227 223 215 212 213 201 213 199 292 345 317 334 279 318 316 312 306 309 313 313 313 312 316 297
231 242 248 257 269 266 263 258 256 255 251 261 259 256 250 244 229 228 226 224 222 215 200 177 157 134 72 25 352 343 325 316 303 312 307 308 305 305 306 308 310 321 326
257 262 256 265 268 283 286 280 273 267 263 262 265 261 254 246 232 227 225 222 207 183 178 173 195 47 14 355 343 333 316 309 304 285 302 308 303 299 298 300 300 302 305
73 41 4 314 308 320 323 317 300 288 287 275 274 265 253 241 232 232 227 202 175 161 165 209 253 325 334 326 314 306 301 289 292 289 294 296 288 298 294 294 298 298 297